BXS1010 ESSA-LPPR

Flight info

Callsign BXS1010
Flight time 3h 36m
Altitude 38000
Route ARS N623 BEDLA N866 LAPSI DCT INVOL N866 AAL DCT KUNAR DCT GREFI/N0478F400 DCT RENEQ DCT EZTIM UM185 DIGSU DCT IBNID/N0471F390 M195 LORKU DCT POZOF DCT LOTEE DCT ELTEP/N0383F230 T328 ASPOR
Aircraft B77L/H-SDE1E2E3FGHIJ2J3J4J5M1RWXY/LB1D1

Departure

Time 2026-05-06 17:15
Airport Stockholm-Arlanda Airport (ESSA)

Arrival

Time 2026-05-06 20:51
Airport Francisco de Sá Carneiro Airport (LPPR)
Time Latitude Longitude Altitude Speed Heading
2026-05-06 16:49 59.65355 17.93515 116 ft 0 kts 76°
2026-05-06 17:04 59.65354 17.93506 116 ft 2 kts 76°
2026-05-06 17:04 59.65350 17.93475 112 ft 2 kts 72°
2026-05-06 17:04 59.65344 17.93444 113 ft 2 kts 65°
2026-05-06 17:05 59.65336 17.93416 112 ft 2 kts 31°
2026-05-06 17:05 59.65321 17.93409 112 ft 1 kts 347°
2026-05-06 17:05 59.65317 17.93411 111 ft 0 kts 346°
2026-05-06 17:07 59.65397 17.93373 113 ft 11 kts 346°
2026-05-06 17:08 59.65474 17.93348 114 ft 11 kts 359°
2026-05-06 17:08 59.65521 17.93246 116 ft 11 kts 283°
2026-05-06 17:08 59.65574 17.93131 109 ft 12 kts 313°
2026-05-06 17:08 59.65573 17.92965 110 ft 12 kts 256°
2026-05-06 17:09 59.65553 17.92799 111 ft 12 kts 255°
2026-05-06 17:09 59.65532 17.92626 108 ft 14 kts 265°
2026-05-06 17:09 59.65589 17.92504 108 ft 0 kts 340°
2026-05-06 17:10 59.65603 17.92494 108 ft 11 kts 342°
2026-05-06 17:11 59.65719 17.92433 109 ft 18 kts 347°
2026-05-06 17:11 59.65840 17.92449 111 ft 18 kts 11°
2026-05-06 17:11 59.65961 17.92494 110 ft 18 kts
2026-05-06 17:11 59.66081 17.92537 113 ft 18 kts 11°
2026-05-06 17:12 59.66200 17.92582 115 ft 18 kts 11°
2026-05-06 17:12 59.66321 17.92624 118 ft 18 kts
2026-05-06 17:12 59.66442 17.92655 122 ft 18 kts 358°
2026-05-06 17:12 59.66527 17.92613 124 ft 10 kts 341°
2026-05-06 17:13 59.66592 17.92561 124 ft 10 kts 325°
2026-05-06 17:13 59.66619 17.92436 129 ft 10 kts 277°
2026-05-06 17:13 59.66573 17.92358 124 ft 0 kts 195°
2026-05-06 17:14 59.66570 17.92356 125 ft 5 kts 195°
2026-05-06 17:14 59.66421 17.92297 123 ft 44 kts 191°
2026-05-06 17:15 59.65823 17.92075 114 ft 130 kts 190°
2026-05-06 17:15 59.64646 17.91634 161 ft 207 kts 192°
2026-05-06 17:15 59.63211 17.90950 1410 ft 204 kts 197°
2026-05-06 17:15 59.61878 17.90326 2767 ft 196 kts 204°
2026-05-06 17:16 59.60796 17.88630 3125 ft 207 kts 243°
2026-05-06 17:16 59.60104 17.86119 3690 ft 211 kts 242°
2026-05-06 17:16 59.59340 17.83615 4365 ft 215 kts 241°
2026-05-06 17:16 59.58568 17.81118 5049 ft 219 kts 242°
2026-05-06 17:17 59.57803 17.78289 5334 ft 243 kts 245°
2026-05-06 17:17 59.57033 17.75250 5979 ft 249 kts 249°
2026-05-06 17:17 59.56721 17.71932 6537 ft 248 kts 273°
2026-05-06 17:17 59.56807 17.68529 7131 ft 254 kts 273°
2026-05-06 17:18 59.56883 17.65000 7803 ft 260 kts 272°
2026-05-06 17:18 59.56959 17.61427 8566 ft 261 kts 272°
2026-05-06 17:18 59.57035 17.57843 9337 ft 262 kts 272°
2026-05-06 17:18 59.57111 17.54191 10062 ft 264 kts 272°
2026-05-06 17:19 59.57186 17.50536 10407 ft 280 kts 272°
2026-05-06 17:19 59.57265 17.46542 10597 ft 302 kts 272°
2026-05-06 17:19 59.57347 17.42334 11112 ft 312 kts 272°
2026-05-06 17:19 59.57430 17.38002 11867 ft 317 kts 272°
2026-05-06 17:20 59.57512 17.33643 12826 ft 318 kts 272°
2026-05-06 17:20 59.57592 17.29284 13790 ft 319 kts 271°
2026-05-06 17:20 59.57670 17.24904 14658 ft 319 kts 271°
2026-05-06 17:20 59.57748 17.20550 15639 ft 316 kts 270°
2026-05-06 17:21 59.57822 17.16234 16611 ft 314 kts 270°
2026-05-06 17:21 59.57895 17.11935 17496 ft 313 kts 269°
2026-05-06 17:21 59.57967 17.07632 18362 ft 314 kts 269°
2026-05-06 17:21 59.58036 17.03322 19013 ft 316 kts 269°
2026-05-06 17:22 59.58082 17.00439 19404 ft 318 kts 269°
2026-05-06 17:22 59.58151 16.96045 19972 ft 323 kts 269°
2026-05-06 17:22 59.58219 16.91599 20569 ft 326 kts 269°
2026-05-06 17:22 59.58287 16.87114 21177 ft 329 kts 269°
2026-05-06 17:23 59.58354 16.82576 21731 ft 332 kts 269°
2026-05-06 17:23 59.58421 16.77988 22280 ft 336 kts 269°
2026-05-06 17:23 59.58487 16.73358 22869 ft 339 kts 268°
2026-05-06 17:23 59.58550 16.68694 23464 ft 342 kts 268°
2026-05-06 17:24 59.58654 16.63989 23948 ft 346 kts 272°
2026-05-06 17:24 59.59037 16.59272 24411 ft 351 kts 277°
2026-05-06 17:24 59.59561 16.54536 24896 ft 354 kts 277°
2026-05-06 17:24 59.60103 16.49773 25352 ft 357 kts 277°
2026-05-06 17:25 59.60621 16.45029 25819 ft 359 kts 277°
2026-05-06 17:25 59.61134 16.40118 26259 ft 362 kts 276°
2026-05-06 17:25 59.61630 16.35221 26729 ft 365 kts 276°
2026-05-06 17:25 59.62100 16.30361 27175 ft 362 kts 273°
2026-05-06 17:26 59.62082 16.25406 27475 ft 362 kts 259°
2026-05-06 17:26 59.61515 16.20545 27922 ft 363 kts 252°
2026-05-06 17:26 59.60594 16.15891 28389 ft 366 kts 242°
2026-05-06 17:26 59.59168 16.11682 28815 ft 370 kts 237°
2026-05-06 17:27 59.57641 16.07560 29223 ft 374 kts 236°
2026-05-06 17:27 59.56107 16.03397 29591 ft 377 kts 237°
2026-05-06 17:27 59.54583 15.99188 29978 ft 380 kts 237°
2026-05-06 17:27 59.53044 15.94903 30328 ft 382 kts 237°
2026-05-06 17:28 59.51504 15.90606 30625 ft 386 kts 237°
2026-05-06 17:28 59.49945 15.86268 30875 ft 390 kts 237°
2026-05-06 17:28 59.48372 15.81900 31145 ft 393 kts 237°
2026-05-06 17:28 59.46782 15.77496 31422 ft 396 kts 237°
2026-05-06 17:29 59.45180 15.73066 31662 ft 399 kts 237°
2026-05-06 17:29 59.43563 15.68600 31895 ft 402 kts 236°
2026-05-06 17:29 59.41956 15.64169 32151 ft 405 kts 236°
2026-05-06 17:29 59.40296 15.59605 32407 ft 406 kts 236°
2026-05-06 17:30 59.38672 15.55146 32712 ft 407 kts 236°
2026-05-06 17:30 59.37022 15.50624 33042 ft 407 kts 236°
2026-05-06 17:30 59.35369 15.46103 33386 ft 407 kts 236°
2026-05-06 17:30 59.33719 15.41597 33684 ft 408 kts 236°
2026-05-06 17:31 59.32062 15.37080 33986 ft 408 kts 236°
2026-05-06 17:31 59.30401 15.32559 34204 ft 409 kts 236°
2026-05-06 17:31 59.28733 15.28028 34381 ft 412 kts 236°
2026-05-06 17:31 59.27054 15.23478 34595 ft 413 kts 236°
2026-05-06 17:32 59.25362 15.18902 34787 ft 415 kts 236°
2026-05-06 17:32 59.23669 15.14330 35002 ft 416 kts 236°
2026-05-06 17:32 59.21991 15.09802 35206 ft 418 kts 236°
2026-05-06 17:32 59.20281 15.05205 35415 ft 419 kts 236°
2026-05-06 17:33 59.18564 15.00596 35624 ft 420 kts 236°
2026-05-06 17:33 59.16839 14.95976 35803 ft 422 kts 236°
2026-05-06 17:33 59.15109 14.91352 36014 ft 423 kts 236°
2026-05-06 17:33 59.13372 14.86714 36222 ft 424 kts 236°
2026-05-06 17:34 59.11635 14.82085 36415 ft 425 kts 236°
2026-05-06 17:34 59.09881 14.77417 36629 ft 427 kts 236°
2026-05-06 17:34 59.08128 14.72763 36812 ft 427 kts 236°
2026-05-06 17:34 59.06365 14.68088 37000 ft 429 kts 235°
2026-05-06 17:35 59.04592 14.63397 37175 ft 430 kts 235°
2026-05-06 17:35 59.02821 14.58721 37371 ft 431 kts 235°
2026-05-06 17:35 59.01044 14.54039 37548 ft 432 kts 235°
2026-05-06 17:36 58.97463 14.44629 37843 ft 435 kts 235°
2026-05-06 17:36 58.95662 14.39906 37901 ft 438 kts 235°
2026-05-06 17:36 58.92047 14.30463 37929 ft 439 kts 235°
2026-05-06 17:37 58.88426 14.21074 37929 ft 432 kts 235°
2026-05-06 17:37 58.84831 14.11796 37930 ft 430 kts 235°
2026-05-06 17:38 58.81246 14.02568 37934 ft 429 kts 234°
2026-05-06 17:38 58.77655 13.93357 37932 ft 430 kts 234°
2026-05-06 17:39 58.74049 13.84141 37935 ft 431 kts 234°
2026-05-06 17:39 58.70426 13.74919 37933 ft 433 kts 234°
2026-05-06 17:40 58.66779 13.65673 37933 ft 434 kts 234°
2026-05-06 17:40 58.63119 13.56431 37934 ft 435 kts 234°
2026-05-06 17:41 58.59464 13.47238 37934 ft 436 kts 234°
2026-05-06 17:41 58.55779 13.38004 37937 ft 436 kts 234°
2026-05-06 17:42 58.52085 13.28785 37933 ft 436 kts 234°
2026-05-06 17:42 58.48388 13.19592 37922 ft 436 kts 234°
2026-05-06 17:43 58.44683 13.10417 37919 ft 436 kts 234°
2026-05-06 17:43 58.40980 13.01281 37915 ft 435 kts 233°
2026-05-06 17:44 58.37273 12.92171 37910 ft 434 kts 233°
2026-05-06 17:44 58.33565 12.83092 37904 ft 434 kts 233°
2026-05-06 17:45 58.29853 12.74039 37904 ft 434 kts 233°
2026-05-06 17:45 58.26135 12.65006 37905 ft 434 kts 233°
2026-05-06 17:46 58.22412 12.55995 37927 ft 434 kts 233°
2026-05-06 17:46 58.18678 12.46991 37940 ft 434 kts 233°
2026-05-06 17:47 58.14942 12.38016 37953 ft 434 kts 232°
2026-05-06 17:47 58.11191 12.29041 37949 ft 435 kts 232°
2026-05-06 17:48 58.07459 12.20144 37949 ft 435 kts 232°
2026-05-06 17:48 58.03689 12.11190 37941 ft 436 kts 232°
2026-05-06 17:49 57.99909 12.02246 37947 ft 436 kts 232°
2026-05-06 17:49 57.96123 11.93320 37941 ft 437 kts 232°
2026-05-06 17:50 57.92317 11.84384 37940 ft 437 kts 232°
2026-05-06 17:50 57.88511 11.75479 37939 ft 437 kts 232°
2026-05-06 17:51 57.84698 11.66591 37940 ft 437 kts 232°
2026-05-06 17:51 57.80871 11.57705 37941 ft 437 kts 232°
2026-05-06 17:52 57.77047 11.48856 37945 ft 437 kts 232°
2026-05-06 17:52 57.73214 11.40022 37949 ft 437 kts 232°
2026-05-06 17:53 57.69376 11.31202 37950 ft 437 kts 232°
2026-05-06 17:53 57.65560 11.22469 37955 ft 437 kts 232°
2026-05-06 17:54 57.61739 11.13672 37954 ft 437 kts 232°
2026-05-06 17:54 57.57910 11.04867 37953 ft 437 kts 232°
2026-05-06 17:55 57.54041 10.96117 37955 ft 437 kts 231°
2026-05-06 17:55 57.50163 10.87403 37953 ft 437 kts 231°
2026-05-06 17:56 57.46270 10.78674 37954 ft 438 kts 231°
2026-05-06 17:56 57.42382 10.69978 37956 ft 438 kts 231°
2026-05-06 17:57 57.38484 10.61288 37956 ft 439 kts 231°
2026-05-06 17:57 57.34594 10.52648 37958 ft 439 kts 231°
2026-05-06 17:58 57.30679 10.43990 37958 ft 439 kts 231°
2026-05-06 17:58 57.26746 10.35330 37958 ft 439 kts 231°
2026-05-06 17:59 57.22814 10.26693 37959 ft 439 kts 231°
2026-05-06 17:59 57.18873 10.18062 37960 ft 440 kts 231°
2026-05-06 18:00 57.14923 10.09438 37964 ft 440 kts 231°
2026-05-06 18:00 57.10972 10.00841 37972 ft 440 kts 231°
2026-05-06 18:01 57.06989 9.92301 37966 ft 440 kts 230°
2026-05-06 18:01 57.02969 9.83802 37965 ft 440 kts 230°
2026-05-06 18:02 56.98954 9.75334 37964 ft 440 kts 230°
2026-05-06 18:02 56.94957 9.66922 37968 ft 440 kts 230°
2026-05-06 18:03 56.90929 9.58466 37967 ft 441 kts 230°
2026-05-06 18:03 56.86893 9.50022 37960 ft 441 kts 230°
2026-05-06 18:04 56.82850 9.41596 37967 ft 441 kts 230°
2026-05-06 18:04 56.78798 9.33179 37967 ft 441 kts 230°
2026-05-06 18:05 56.74743 9.24787 37969 ft 441 kts 230°
2026-05-06 18:05 56.70677 9.16402 37965 ft 441 kts 230°
2026-05-06 18:06 56.66633 9.08092 37964 ft 441 kts 230°
2026-05-06 18:06 56.62553 8.99736 37961 ft 442 kts 229°
2026-05-06 18:07 56.58473 8.91411 37964 ft 442 kts 229°
2026-05-06 18:07 56.54370 8.83069 37958 ft 442 kts 229°
2026-05-06 18:08 56.50275 8.74770 37962 ft 442 kts 229°
2026-05-06 18:08 56.46167 8.66476 37964 ft 442 kts 229°
2026-05-06 18:09 56.42049 8.58191 37970 ft 442 kts 229°
2026-05-06 18:09 56.37955 8.49981 37974 ft 443 kts 229°
2026-05-06 18:10 56.33835 8.41750 37976 ft 443 kts 229°
2026-05-06 18:10 56.30364 8.34837 37977 ft 443 kts 229°
2026-05-06 18:11 56.26250 8.26668 37979 ft 443 kts 229°
2026-05-06 18:11 56.22098 8.18455 37979 ft 443 kts 229°
2026-05-06 18:12 56.17947 8.10270 37982 ft 444 kts 229°
2026-05-06 18:12 56.13778 8.02079 37982 ft 444 kts 229°
2026-05-06 18:13 56.09608 7.93915 37987 ft 444 kts 229°
2026-05-06 18:13 56.05426 7.85754 37987 ft 444 kts 229°
2026-05-06 18:14 56.01246 7.77625 37991 ft 445 kts 229°
2026-05-06 18:14 55.97074 7.69541 37991 ft 445 kts 228°
2026-05-06 18:15 55.92870 7.61427 37985 ft 445 kts 228°
2026-05-06 18:15 55.88662 7.53324 37989 ft 445 kts 228°
2026-05-06 18:16 55.84446 7.45236 37989 ft 445 kts 228°
2026-05-06 18:16 55.80223 7.37163 37994 ft 446 kts 228°
2026-05-06 18:17 55.75994 7.29108 37991 ft 446 kts 228°
2026-05-06 18:17 55.71756 7.21060 37991 ft 446 kts 228°
2026-05-06 18:18 55.67507 7.13019 37996 ft 447 kts 228°
2026-05-06 18:18 55.63283 7.05049 37993 ft 447 kts 228°
2026-05-06 18:19 55.59028 6.97025 37995 ft 447 kts 228°
2026-05-06 18:19 55.54818 6.88939 38010 ft 447 kts 229°
2026-05-06 18:20 55.50611 6.80844 37991 ft 447 kts 229°
2026-05-06 18:20 55.46394 6.72780 37987 ft 447 kts 228°
2026-05-06 18:21 55.42165 6.64734 37984 ft 447 kts 228°
2026-05-06 18:21 55.37933 6.56696 37985 ft 448 kts 228°
2026-05-06 18:22 55.33696 6.48681 38005 ft 448 kts 228°
2026-05-06 18:22 55.29449 6.40686 38005 ft 448 kts 228°
2026-05-06 18:23 55.25215 6.32746 38003 ft 448 kts 228°
2026-05-06 18:23 55.20926 6.24712 37996 ft 448 kts 228°
2026-05-06 18:24 55.16686 6.16799 38002 ft 449 kts 228°
2026-05-06 18:24 55.12411 6.08844 38003 ft 449 kts 227°
2026-05-06 18:25 55.08129 6.00910 38006 ft 449 kts 227°
2026-05-06 18:25 55.03844 5.92986 38004 ft 449 kts 227°
2026-05-06 18:26 54.99563 5.85019 38086 ft 452 kts 230°
2026-05-06 18:26 54.97540 5.80823 38286 ft 452 kts 231°
2026-05-06 18:26 54.95543 5.76601 38526 ft 451 kts 231°
2026-05-06 18:27 54.93554 5.72381 38728 ft 452 kts 231°
2026-05-06 18:27 54.91554 5.68146 38880 ft 452 kts 231°
2026-05-06 18:27 54.89556 5.63930 39047 ft 452 kts 231°
2026-05-06 18:27 54.87553 5.59715 39200 ft 453 kts 231°
2026-05-06 18:28 54.85545 5.55501 39348 ft 453 kts 231°
2026-05-06 18:28 54.83531 5.51291 39494 ft 453 kts 231°
2026-05-06 18:28 54.81514 5.47087 39649 ft 453 kts 231°
2026-05-06 18:28 54.79499 5.42890 39795 ft 454 kts 231°
2026-05-06 18:29 54.77477 5.38687 39906 ft 454 kts 231°
2026-05-06 18:29 54.75451 5.34484 39950 ft 456 kts 231°
2026-05-06 18:29 54.71371 5.26035 39995 ft 457 kts 231°
2026-05-06 18:30 54.67300 5.17634 40010 ft 455 kts 231°
2026-05-06 18:30 54.63232 5.09261 40016 ft 454 kts 231°
2026-05-06 18:31 54.59164 5.00929 39996 ft 454 kts 231°
2026-05-06 18:31 54.55121 4.92676 40009 ft 453 kts 230°
2026-05-06 18:32 54.51051 4.84391 40008 ft 453 kts 230°
2026-05-06 18:32 54.46970 4.76118 40008 ft 453 kts 231°
2026-05-06 18:33 54.42890 4.67849 40008 ft 454 kts 230°
2026-05-06 18:33 54.38797 4.59596 40009 ft 454 kts 230°
2026-05-06 18:34 54.34685 4.51338 40012 ft 455 kts 230°
2026-05-06 18:34 54.30566 4.43094 40013 ft 456 kts 230°
2026-05-06 18:35 54.26428 4.34834 40008 ft 457 kts 230°
2026-05-06 18:35 54.22306 4.26550 40013 ft 457 kts 231°
2026-05-06 18:36 54.18334 4.18066 40012 ft 457 kts 232°
2026-05-06 18:36 54.14388 4.09549 40016 ft 458 kts 232°
2026-05-06 18:37 54.11091 4.02497 40015 ft 458 kts 232°
2026-05-06 18:37 54.06430 3.92617 40017 ft 458 kts 232°
2026-05-06 18:38 54.02428 3.84182 40020 ft 458 kts 232°
2026-05-06 18:38 53.98450 3.75825 40018 ft 458 kts 232°
2026-05-06 18:39 53.94439 3.67422 40021 ft 458 kts 232°
2026-05-06 18:40 53.88403 3.54833 40020 ft 458 kts 232°
2026-05-06 18:40 53.84370 3.46455 40019 ft 458 kts 231°
2026-05-06 18:41 53.80337 3.38106 40019 ft 458 kts 231°
2026-05-06 18:41 53.76291 3.29759 40017 ft 459 kts 231°
2026-05-06 18:42 53.72240 3.21430 40024 ft 459 kts 231°
2026-05-06 18:42 53.68183 3.13114 40017 ft 459 kts 231°
2026-05-06 18:43 53.64144 3.04865 40013 ft 459 kts 231°
2026-05-06 18:43 53.60069 2.96569 40010 ft 459 kts 231°
2026-05-06 18:44 53.55981 2.88273 40012 ft 460 kts 231°
2026-05-06 18:44 53.51893 2.80006 40014 ft 460 kts 231°
2026-05-06 18:45 53.47799 2.71752 40012 ft 460 kts 231°
2026-05-06 18:45 53.43701 2.63514 40014 ft 460 kts 231°
2026-05-06 18:46 53.39419 2.55640 40016 ft 461 kts 223°
2026-05-06 18:46 53.34554 2.48619 40016 ft 461 kts 221°
2026-05-06 18:47 53.29682 2.41629 40018 ft 462 kts 222°
2026-05-06 18:47 53.24827 2.34593 40016 ft 462 kts 222°
2026-05-06 18:48 53.19969 2.27565 40015 ft 462 kts 222°
2026-05-06 18:48 53.15104 2.20540 40011 ft 462 kts 222°
2026-05-06 18:49 53.10238 2.13528 40010 ft 463 kts 222°
2026-05-06 18:49 53.05363 2.06538 40013 ft 463 kts 222°
2026-05-06 18:50 53.00481 1.99554 40013 ft 463 kts 222°
2026-05-06 18:50 52.95600 1.92581 40012 ft 463 kts 222°
2026-05-06 18:51 52.90719 1.85621 40006 ft 463 kts 222°
2026-05-06 18:51 52.85829 1.78683 40006 ft 463 kts 221°
2026-05-06 18:52 52.80921 1.71748 40011 ft 464 kts 221°
2026-05-06 18:52 52.76011 1.64826 40012 ft 464 kts 221°
2026-05-06 18:53 52.71128 1.57958 40016 ft 464 kts 221°
2026-05-06 18:53 52.66211 1.51067 40017 ft 464 kts 221°
2026-05-06 18:54 52.61278 1.44175 40022 ft 464 kts 221°
2026-05-06 18:54 52.56350 1.37312 40021 ft 465 kts 221°
2026-05-06 18:55 52.51414 1.30458 40019 ft 465 kts 221°
2026-05-06 18:55 52.46469 1.23613 40014 ft 464 kts 221°
2026-05-06 18:56 52.41527 1.16795 40009 ft 464 kts 221°
2026-05-06 18:56 52.36576 1.09991 40000 ft 464 kts 221°
2026-05-06 18:57 52.31628 1.03203 39996 ft 464 kts 221°
2026-05-06 18:57 52.26711 0.96469 39998 ft 464 kts 221°
2026-05-06 18:58 52.21757 0.89711 39994 ft 464 kts 221°
2026-05-06 18:58 52.17068 0.83338 39991 ft 464 kts 221°
2026-05-06 18:59 52.12102 0.76601 39995 ft 465 kts 221°
2026-05-06 18:59 52.07972 0.71014 39996 ft 465 kts 221°
2026-05-06 19:00 52.02992 0.64278 40002 ft 465 kts 222°
2026-05-06 19:00 51.98410 0.56896 40010 ft 464 kts 227°
2026-05-06 19:01 51.93966 0.49283 40017 ft 465 kts 227°
2026-05-06 19:01 51.89510 0.41693 40019 ft 465 kts 227°
2026-05-06 19:02 51.85027 0.34125 40021 ft 466 kts 227°
2026-05-06 19:02 51.80580 0.26658 40026 ft 466 kts 227°
2026-05-06 19:03 51.76082 0.19131 40021 ft 466 kts 227°
2026-05-06 19:03 51.71596 0.11647 40013 ft 466 kts 227°
2026-05-06 19:04 51.67112 0.04187 40019 ft 466 kts 227°
2026-05-06 19:04 51.62622 -0.03262 40016 ft 467 kts 227°
2026-05-06 19:05 51.58093 -0.10752 40021 ft 466 kts 227°
2026-05-06 19:05 51.53563 -0.18220 40021 ft 466 kts 226°
2026-05-06 19:06 51.49027 -0.25676 39989 ft 466 kts 226°
2026-05-06 19:06 51.44554 -0.33006 40023 ft 466 kts 226°
2026-05-06 19:07 51.40002 -0.40443 40022 ft 466 kts 226°
2026-05-06 19:07 51.35496 -0.47783 40022 ft 466 kts 226°
2026-05-06 19:08 51.30929 -0.55201 39998 ft 466 kts 226°
2026-05-06 19:08 51.26368 -0.62586 39993 ft 466 kts 226°
2026-05-06 19:09 51.21808 -0.69948 39996 ft 466 kts 226°
2026-05-06 19:09 51.17242 -0.77296 39991 ft 466 kts 226°
2026-05-06 19:10 51.12657 -0.84655 39995 ft 467 kts 226°
2026-05-06 19:10 51.08077 -0.91982 39996 ft 467 kts 226°
2026-05-06 19:11 51.03494 -0.99292 39996 ft 467 kts 226°
2026-05-06 19:11 50.98905 -1.06592 39994 ft 467 kts 226°
2026-05-06 19:12 50.94314 -1.13872 39994 ft 467 kts 226°
2026-05-06 19:12 50.89705 -1.21159 39995 ft 467 kts 226°
2026-05-06 19:13 50.85134 -1.28365 39993 ft 467 kts 226°
2026-05-06 19:13 50.80521 -1.35616 39995 ft 467 kts 226°
2026-05-06 19:14 50.75899 -1.42860 39992 ft 467 kts 226°
2026-05-06 19:14 50.71273 -1.50089 39994 ft 467 kts 225°
2026-05-06 19:15 50.66644 -1.57302 39998 ft 468 kts 225°
2026-05-06 19:15 50.62010 -1.64502 39992 ft 468 kts 225°
2026-05-06 19:16 50.57404 -1.71641 39997 ft 468 kts 225°
2026-05-06 19:16 50.52663 -1.78643 39974 ft 466 kts 220°
2026-05-06 19:16 50.50048 -1.81674 39787 ft 468 kts 214°
2026-05-06 19:17 50.47303 -1.84437 39602 ft 470 kts 213°
2026-05-06 19:17 50.44537 -1.87171 39453 ft 470 kts 213°
2026-05-06 19:17 50.41767 -1.89916 39324 ft 470 kts 213°
2026-05-06 19:17 50.39009 -1.92673 39194 ft 471 kts 214°
2026-05-06 19:18 50.36260 -1.95444 39108 ft 470 kts 214°
2026-05-06 19:18 50.30768 -2.00993 39022 ft 469 kts 214°
2026-05-06 19:19 50.25278 -2.06518 39002 ft 469 kts 214°
2026-05-06 19:19 50.19759 -2.11964 38996 ft 469 kts 213°
2026-05-06 19:20 50.14215 -2.17338 39004 ft 469 kts 213°
2026-05-06 19:20 50.08671 -2.22712 39003 ft 469 kts 213°
2026-05-06 19:21 50.03120 -2.28094 39001 ft 470 kts 213°
2026-05-06 19:21 49.97566 -2.33467 39001 ft 470 kts 213°
2026-05-06 19:22 49.91937 -2.38529 39004 ft 472 kts 206°
2026-05-06 19:22 49.85949 -2.42712 39005 ft 473 kts 205°
2026-05-06 19:23 49.79930 -2.46829 39007 ft 473 kts 205°
2026-05-06 19:23 49.73933 -2.50961 39005 ft 473 kts 205°
2026-05-06 19:24 49.67893 -2.55147 39004 ft 474 kts 205°
2026-05-06 19:24 49.61880 -2.59312 38993 ft 474 kts 205°
2026-05-06 19:25 49.55869 -2.63464 38991 ft 473 kts 205°
2026-05-06 19:25 49.49848 -2.67611 38996 ft 473 kts 205°
2026-05-06 19:26 49.43836 -2.71739 38992 ft 473 kts 205°
2026-05-06 19:26 49.37832 -2.75850 38994 ft 473 kts 205°
2026-05-06 19:27 49.31863 -2.79926 38994 ft 472 kts 205°
2026-05-06 19:27 49.25857 -2.84018 38997 ft 472 kts 205°
2026-05-06 19:28 49.19851 -2.88098 38999 ft 472 kts 205°
2026-05-06 19:28 49.13844 -2.92168 38999 ft 472 kts 205°
2026-05-06 19:29 49.07829 -2.96232 39002 ft 472 kts 205°
2026-05-06 19:29 49.01822 -3.00280 39001 ft 472 kts 205°
2026-05-06 19:30 48.95815 -3.04318 38998 ft 472 kts 205°
2026-05-06 19:30 48.89794 -3.08354 38999 ft 472 kts 205°
2026-05-06 19:31 48.83782 -3.12374 39000 ft 472 kts 205°
2026-05-06 19:31 48.74794 -3.18363 38998 ft 472 kts 205°
2026-05-06 19:32 48.68771 -3.22364 38995 ft 472 kts 205°
2026-05-06 19:32 48.62746 -3.26356 38998 ft 472 kts 205°
2026-05-06 19:33 48.56726 -3.30333 38992 ft 472 kts 205°
2026-05-06 19:33 48.50700 -3.34305 39000 ft 472 kts 205°
2026-05-06 19:34 48.44678 -3.38263 38995 ft 472 kts 205°
2026-05-06 19:34 48.38650 -3.42215 38995 ft 472 kts 205°
2026-05-06 19:35 48.32622 -3.46156 38997 ft 472 kts 205°
2026-05-06 19:35 48.26602 -3.50082 38995 ft 472 kts 205°
2026-05-06 19:36 48.20558 -3.54015 38994 ft 472 kts 205°
2026-05-06 19:36 48.14521 -3.57932 38997 ft 472 kts 205°
2026-05-06 19:37 48.08524 -3.61814 38991 ft 472 kts 205°
2026-05-06 19:37 48.03465 -3.65080 38994 ft 472 kts 205°
2026-05-06 19:38 47.96447 -3.69600 38993 ft 472 kts 205°
2026-05-06 19:38 47.90408 -3.73479 39000 ft 472 kts 205°
2026-05-06 19:39 47.84375 -3.77344 38993 ft 472 kts 205°
2026-05-06 19:39 47.78344 -3.81197 38998 ft 472 kts 205°
2026-05-06 19:40 47.72306 -3.85046 38985 ft 472 kts 205°
2026-05-06 19:40 47.66274 -3.88881 38986 ft 472 kts 205°
2026-05-06 19:41 47.60241 -3.92707 38986 ft 472 kts 205°
2026-05-06 19:41 47.54202 -3.96528 39000 ft 472 kts 205°
2026-05-06 19:42 47.48205 -4.00311 38998 ft 471 kts 204°
2026-05-06 19:42 47.42160 -4.04116 38993 ft 472 kts 204°
2026-05-06 19:43 47.36122 -4.07908 38996 ft 472 kts 204°
2026-05-06 19:43 47.30081 -4.11692 38994 ft 472 kts 204°
2026-05-06 19:44 47.24038 -4.15468 38996 ft 472 kts 204°
2026-05-06 19:44 47.17996 -4.19234 39000 ft 472 kts 204°
2026-05-06 19:45 47.11943 -4.22998 39003 ft 472 kts 204°
2026-05-06 19:45 47.05934 -4.26726 39006 ft 472 kts 205°
2026-05-06 19:46 46.99956 -4.30705 39007 ft 471 kts 207°
2026-05-06 19:46 46.94035 -4.34822 39005 ft 471 kts 207°
2026-05-06 19:47 46.88098 -4.38923 39012 ft 471 kts 206°
2026-05-06 19:47 46.82163 -4.42975 39014 ft 471 kts 206°
2026-05-06 19:48 46.77188 -4.46350 39014 ft 471 kts 206°
2026-05-06 19:48 46.71274 -4.50352 39012 ft 471 kts 206°
2026-05-06 19:49 46.65332 -4.54364 39017 ft 471 kts 206°
2026-05-06 19:49 46.59388 -4.58369 39018 ft 471 kts 206°
2026-05-06 19:50 46.53443 -4.62365 39020 ft 471 kts 206°
2026-05-06 19:50 46.47485 -4.66360 39020 ft 471 kts 206°
2026-05-06 19:51 46.41537 -4.70339 39022 ft 470 kts 206°
2026-05-06 19:51 46.35632 -4.74280 39023 ft 470 kts 206°
2026-05-06 19:52 46.29686 -4.78238 39024 ft 470 kts 206°
2026-05-06 19:52 46.23736 -4.82189 39023 ft 470 kts 206°
2026-05-06 19:53 46.17781 -4.86135 39024 ft 471 kts 206°
2026-05-06 19:53 46.11827 -4.90071 39027 ft 471 kts 206°
2026-05-06 19:54 46.05870 -4.93998 39027 ft 471 kts 206°
2026-05-06 19:54 45.99908 -4.97921 39031 ft 471 kts 206°
2026-05-06 19:55 45.93950 -5.01830 39027 ft 471 kts 206°
2026-05-06 19:55 45.87988 -5.05733 39028 ft 471 kts 206°
2026-05-06 19:56 45.82029 -5.09625 39031 ft 471 kts 206°
2026-05-06 19:56 45.76105 -5.13486 39030 ft 470 kts 206°
2026-05-06 19:57 45.70142 -5.17362 39023 ft 470 kts 206°
2026-05-06 19:57 45.64182 -5.21226 39027 ft 470 kts 206°
2026-05-06 19:58 45.58227 -5.25080 39028 ft 470 kts 206°
2026-05-06 19:58 45.52267 -5.28928 39028 ft 470 kts 206°
2026-05-06 19:59 45.46313 -5.32762 39022 ft 470 kts 206°
2026-05-06 19:59 45.40357 -5.36590 39030 ft 470 kts 206°
2026-05-06 20:00 45.34391 -5.40414 39028 ft 470 kts 206°
2026-05-06 20:00 45.28435 -5.44223 39031 ft 470 kts 206°
2026-05-06 20:01 45.22474 -5.48027 39032 ft 470 kts 206°
2026-05-06 20:01 45.16513 -5.51819 39026 ft 469 kts 206°
2026-05-06 20:02 45.10551 -5.55607 39024 ft 469 kts 206°
2026-05-06 20:02 45.04633 -5.59353 39030 ft 469 kts 205°
2026-05-06 20:03 44.98671 -5.63124 39038 ft 469 kts 206°
2026-05-06 20:03 44.92713 -5.66887 39026 ft 469 kts 205°
2026-05-06 20:04 44.86762 -5.70634 39027 ft 469 kts 205°
2026-05-06 20:04 44.80802 -5.74375 39023 ft 468 kts 205°
2026-05-06 20:05 44.74839 -5.78113 39026 ft 468 kts 205°
2026-05-06 20:05 44.68888 -5.81834 39023 ft 468 kts 206°
2026-05-06 20:06 44.63201 -5.86227 39014 ft 466 kts 216°
2026-05-06 20:06 44.57962 -5.91468 39015 ft 466 kts 217°
2026-05-06 20:07 44.52689 -5.96757 39012 ft 466 kts 217°
2026-05-06 20:07 44.47400 -6.02010 39027 ft 466 kts 216°
2026-05-06 20:08 44.42101 -6.07235 39026 ft 466 kts 216°
2026-05-06 20:08 44.36798 -6.12447 39022 ft 466 kts 216°
2026-05-06 20:09 44.31485 -6.17657 39021 ft 466 kts 216°
2026-05-06 20:09 44.26169 -6.22859 39022 ft 466 kts 216°
2026-05-06 20:10 44.20851 -6.28052 39023 ft 466 kts 216°
2026-05-06 20:10 44.15567 -6.33199 39018 ft 466 kts 216°
2026-05-06 20:11 44.10245 -6.38373 39013 ft 466 kts 216°
2026-05-06 20:11 44.04920 -6.43539 39016 ft 466 kts 216°
2026-05-06 20:12 43.99598 -6.48689 39014 ft 466 kts 216°
2026-05-06 20:12 43.94273 -6.53832 39016 ft 466 kts 216°
2026-05-06 20:13 43.88952 -6.58958 39014 ft 466 kts 216°
2026-05-06 20:13 43.83631 -6.64073 39015 ft 465 kts 216°
2026-05-06 20:14 43.78306 -6.69169 39016 ft 465 kts 216°
2026-05-06 20:14 43.73014 -6.74232 39017 ft 465 kts 216°
2026-05-06 20:15 43.67691 -6.79316 39015 ft 465 kts 216°
2026-05-06 20:15 43.62375 -6.84384 39015 ft 464 kts 216°
2026-05-06 20:16 43.57059 -6.89439 39018 ft 464 kts 216°
2026-05-06 20:16 43.51726 -6.94501 39016 ft 464 kts 216°
2026-05-06 20:17 43.46404 -6.99539 39016 ft 464 kts 216°
2026-05-06 20:17 43.41112 -7.04536 39019 ft 464 kts 216°
2026-05-06 20:18 43.35775 -7.09567 39014 ft 464 kts 216°
2026-05-06 20:18 43.30449 -7.14587 39014 ft 464 kts 216°
2026-05-06 20:19 43.25123 -7.19591 39012 ft 464 kts 216°
2026-05-06 20:19 43.19794 -7.24581 39007 ft 464 kts 216°
2026-05-06 20:20 43.14462 -7.29562 39010 ft 463 kts 216°
2026-05-06 20:20 43.09145 -7.34521 39007 ft 463 kts 216°
2026-05-06 20:21 43.03849 -7.39448 39008 ft 463 kts 215°
2026-05-06 20:21 42.98558 -7.44361 38888 ft 458 kts 215°
2026-05-06 20:22 42.95924 -7.46804 38722 ft 455 kts 215°
2026-05-06 20:22 42.93315 -7.49220 38258 ft 450 kts 215°
2026-05-06 20:22 42.90742 -7.51600 37805 ft 445 kts 215°
2026-05-06 20:22 42.88195 -7.53954 37362 ft 439 kts 215°
2026-05-06 20:23 42.85680 -7.56276 36924 ft 434 kts 215°
2026-05-06 20:23 42.83193 -7.58570 36497 ft 429 kts 215°
2026-05-06 20:23 42.80736 -7.60834 36077 ft 425 kts 215°
2026-05-06 20:23 42.78298 -7.63080 35641 ft 420 kts 214°
2026-05-06 20:24 42.75884 -7.65301 35221 ft 416 kts 214°
2026-05-06 20:24 42.73494 -7.67497 34804 ft 413 kts 214°
2026-05-06 20:24 42.71123 -7.69676 34372 ft 409 kts 214°
2026-05-06 20:24 42.68775 -7.71830 33951 ft 406 kts 214°
2026-05-06 20:25 42.66443 -7.73967 33451 ft 402 kts 214°
2026-05-06 20:25 42.64123 -7.76058 33016 ft 398 kts 211°
2026-05-06 20:25 42.61701 -7.77809 32602 ft 393 kts 205°
2026-05-06 20:25 42.59197 -7.79241 32192 ft 388 kts 200°
2026-05-06 20:26 42.56630 -7.80337 31774 ft 383 kts 196°
2026-05-06 20:26 42.54069 -7.81298 31364 ft 379 kts 195°
2026-05-06 20:26 42.51535 -7.82227 30960 ft 376 kts 195°
2026-05-06 20:26 42.49020 -7.83147 30564 ft 372 kts 195°
2026-05-06 20:27 42.46565 -7.84049 30167 ft 369 kts 195°
2026-05-06 20:27 42.44095 -7.84962 29713 ft 367 kts 195°
2026-05-06 20:27 42.41636 -7.85874 29275 ft 364 kts 195°
2026-05-06 20:27 42.39207 -7.86777 28866 ft 361 kts 195°
2026-05-06 20:28 42.36797 -7.87674 28460 ft 358 kts 195°
2026-05-06 20:28 42.34403 -7.88565 28031 ft 355 kts 195°
2026-05-06 20:28 42.32033 -7.89447 27632 ft 352 kts 195°
2026-05-06 20:28 42.29678 -7.90323 27229 ft 350 kts 195°
2026-05-06 20:29 42.27340 -7.91192 26820 ft 347 kts 195°
2026-05-06 20:29 42.25017 -7.92055 26444 ft 345 kts 195°
2026-05-06 20:29 42.22712 -7.92910 26071 ft 343 kts 195°
2026-05-06 20:29 42.20419 -7.93761 25700 ft 341 kts 195°
2026-05-06 20:30 42.18139 -7.94603 25330 ft 338 kts 195°
2026-05-06 20:30 42.13625 -7.96267 24601 ft 334 kts 195°
2026-05-06 20:30 42.11376 -7.97098 24245 ft 334 kts 195°
2026-05-06 20:31 42.09128 -7.97929 23884 ft 338 kts 195°
2026-05-06 20:31 42.06857 -7.98768 23528 ft 346 kts 195°
2026-05-06 20:31 42.04500 -7.99639 23075 ft 348 kts 195°
2026-05-06 20:31 42.02175 -8.00497 22666 ft 345 kts 195°
2026-05-06 20:32 41.99898 -8.01336 22287 ft 342 kts 195°
2026-05-06 20:32 41.97616 -8.02176 21912 ft 339 kts 195°
2026-05-06 20:32 41.95351 -8.03009 21549 ft 336 kts 195°
2026-05-06 20:32 41.93105 -8.03836 21174 ft 333 kts 195°
2026-05-06 20:33 41.90873 -8.04657 20814 ft 331 kts 195°
2026-05-06 20:33 41.88659 -8.05471 20449 ft 328 kts 195°
2026-05-06 20:33 41.86461 -8.06278 20086 ft 326 kts 195°
2026-05-06 20:33 41.84280 -8.07076 19727 ft 324 kts 195°
2026-05-06 20:34 41.82107 -8.07873 19349 ft 322 kts 196°
2026-05-06 20:34 41.80047 -8.08977 18996 ft 318 kts 207°
2026-05-06 20:34 41.78130 -8.10451 18647 ft 316 kts 211°
2026-05-06 20:34 41.76251 -8.11966 18296 ft 315 kts 210°
2026-05-06 20:35 41.74357 -8.13444 17899 ft 314 kts 210°
2026-05-06 20:35 41.72460 -8.14886 17505 ft 313 kts 209°
2026-05-06 20:35 41.70564 -8.16306 17143 ft 311 kts 208°
2026-05-06 20:35 41.68601 -8.17469 16776 ft 308 kts 200°
2026-05-06 20:36 41.66598 -8.18378 16422 ft 306 kts 198°
2026-05-06 20:36 41.64577 -8.19240 16068 ft 304 kts 198°
2026-05-06 20:36 41.62572 -8.20103 15720 ft 301 kts 198°
2026-05-06 20:36 41.60587 -8.20974 15369 ft 299 kts 198°
2026-05-06 20:37 41.58614 -8.21854 15022 ft 298 kts 199°
2026-05-06 20:37 41.56653 -8.22738 14678 ft 296 kts 199°
2026-05-06 20:37 41.54705 -8.23621 14331 ft 295 kts 199°
2026-05-06 20:37 41.52762 -8.24506 13990 ft 293 kts 199°
2026-05-06 20:38 41.51489 -8.25086 13776 ft 293 kts 199°
2026-05-06 20:38 41.48940 -8.26249 13266 ft 291 kts 199°
2026-05-06 20:38 41.47648 -8.26838 13029 ft 289 kts 199°
2026-05-06 20:38 41.45132 -8.27983 12564 ft 287 kts 199°
2026-05-06 20:39 41.43251 -8.28838 12240 ft 285 kts 199°
2026-05-06 20:39 41.41986 -8.29413 12016 ft 284 kts 198°
2026-05-06 20:39 41.40124 -8.30258 11691 ft 282 kts 198°
2026-05-06 20:39 41.38274 -8.31097 11367 ft 280 kts 198°
2026-05-06 20:40 41.36459 -8.31919 11045 ft 278 kts 198°
2026-05-06 20:40 41.34632 -8.32747 10734 ft 276 kts 198°
2026-05-06 20:40 41.32816 -8.33570 10419 ft 275 kts 198°
2026-05-06 20:40 41.31017 -8.34385 10180 ft 271 kts 198°
2026-05-06 20:41 41.29263 -8.35179 10034 ft 262 kts 198°
2026-05-06 20:41 41.27556 -8.35952 9873 ft 256 kts 198°
2026-05-06 20:41 41.25864 -8.36717 9571 ft 259 kts 198°
2026-05-06 20:41 41.24145 -8.37493 9294 ft 263 kts 198°
2026-05-06 20:42 41.22397 -8.38283 8984 ft 267 kts 198°
2026-05-06 20:42 41.20646 -8.39075 8697 ft 265 kts 198°
2026-05-06 20:42 41.18904 -8.39861 8398 ft 263 kts 198°
2026-05-06 20:42 41.17181 -8.40639 8105 ft 261 kts 198°
2026-05-06 20:43 41.15488 -8.41404 7822 ft 258 kts 199°
2026-05-06 20:43 41.13936 -8.42586 7444 ft 256 kts 219°
2026-05-06 20:43 41.12621 -8.44174 7134 ft 256 kts 223°
2026-05-06 20:43 41.11344 -8.45801 6809 ft 257 kts 223°
2026-05-06 20:44 41.10043 -8.47429 6459 ft 259 kts 222°
2026-05-06 20:44 41.08705 -8.49058 6082 ft 262 kts 222°
2026-05-06 20:44 41.07349 -8.50675 5733 ft 262 kts 221°
2026-05-06 20:44 41.05989 -8.52281 5440 ft 261 kts 221°
2026-05-06 20:45 41.04632 -8.53875 5127 ft 261 kts 222°
2026-05-06 20:45 41.03325 -8.55496 4909 ft 247 kts 232°
2026-05-06 20:45 41.02659 -8.57433 4677 ft 222 kts 265°
2026-05-06 20:45 41.02769 -8.59354 4421 ft 201 kts 288°
2026-05-06 20:46 41.03364 -8.60979 4166 ft 194 kts 309°
2026-05-06 20:46 41.04253 -8.62229 3926 ft 180 kts 322°
2026-05-06 20:46 41.05279 -8.63010 3687 ft 166 kts 343°
2026-05-06 20:46 41.06395 -8.63351 3495 ft 165 kts 349°
2026-05-06 20:47 41.07516 -8.63639 3307 ft 163 kts 350°
2026-05-06 20:47 41.08622 -8.63923 3105 ft 162 kts 349°
2026-05-06 20:47 41.09742 -8.64206 2898 ft 167 kts 349°
2026-05-06 20:47 41.10892 -8.64500 2700 ft 168 kts 349°
2026-05-06 20:48 41.12039 -8.64797 2463 ft 167 kts 349°
2026-05-06 20:48 41.13152 -8.65085 2228 ft 158 kts 349°
2026-05-06 20:48 41.14195 -8.65358 2029 ft 149 kts 350°
2026-05-06 20:48 41.15167 -8.65608 1856 ft 136 kts 350°
2026-05-06 20:49 41.16061 -8.65842 1710 ft 125 kts 349°
2026-05-06 20:49 41.16910 -8.66062 1524 ft 125 kts 349°
2026-05-06 20:49 41.17778 -8.66289 1365 ft 129 kts 349°
2026-05-06 20:49 41.18669 -8.66524 1198 ft 131 kts 351°
2026-05-06 20:50 41.19571 -8.66756 1029 ft 132 kts 349°
2026-05-06 20:50 41.20481 -8.66995 875 ft 135 kts 348°
2026-05-06 20:50 41.21405 -8.67254 652 ft 139 kts 347°
2026-05-06 20:50 41.22364 -8.67495 472 ft 140 kts 349°
2026-05-06 20:51 41.23286 -8.67732 296 ft 134 kts 348°
2026-05-06 20:51 41.24157 -8.67951 238 ft 111 kts 349°
2026-05-06 20:51 41.24637 -8.68079 242 ft 47 kts 349°
2026-05-06 20:51 41.24930 -8.68156 240 ft 39 kts 350°
2026-05-06 20:52 41.25153 -8.68152 238 ft 14 kts 14°
2026-05-06 20:52 41.25247 -8.68117 239 ft 14 kts 24°
2026-05-06 20:52 41.25275 -8.68021 239 ft 10 kts 133°
2026-05-06 20:52 41.25206 -8.67992 239 ft 10 kts 169°
2026-05-06 20:53 41.25107 -8.67972 239 ft 20 kts 171°
2026-05-06 20:53 41.24953 -8.67929 239 ft 20 kts 169°
2026-05-06 20:53 41.24840 -8.67878 239 ft 17 kts 151°
2026-05-06 20:53 41.24730 -8.67818 240 ft 17 kts 167°
2026-05-06 20:54 41.24611 -8.67786 240 ft 18 kts 169°
2026-05-06 20:54 41.24473 -8.67750 240 ft 22 kts 168°
2026-05-06 20:54 41.24359 -8.67719 239 ft 14 kts 168°
2026-05-06 20:54 41.24279 -8.67657 239 ft 14 kts 133°
2026-05-06 20:55 41.24197 -8.67576 239 ft 18 kts 161°
2026-05-06 20:55 41.24060 -8.67537 239 ft 21 kts 168°
2026-05-06 20:55 41.23940 -8.67504 239 ft 14 kts 168°
2026-05-06 20:55 41.23845 -8.67480 239 ft 12 kts 169°
2026-05-06 20:56 41.23798 -8.67528 239 ft 4 kts 252°
2026-05-06 20:56 41.23793 -8.67548 239 ft 0 kts 252°